Location: Tel Aviv
(32.0670°N, 34.7670°E)
Time: 13:12:21
(UTC+02:00)

SRMSAT - Visible Passes

Search period start: 15 February 2026 00:00
Search period end: 25 February 2026 00:00
Orbit: 846 x 862 km, 20.0° (Epoch: 15 February)

Date Brightness Start Highest point End Pass type
(mag) Time Alt. Az. Time Alt. Az. Time Alt. Az.
15 Feb ? 03:56:48 13° S 03:56:48 13° S 03:58:10 10° SSE visible
19 Feb ? 19:28:56 10° S 19:29:32 11° S 19:29:32 11° S visible
20 Feb ? 19:14:11 10° S 19:16:29 12° SSE 19:16:37 12° SSE visible
21 Feb ? 18:59:40 10° SSW 19:02:28 14° SSE 19:03:41 13° SSE visible
22 Feb ? 18:45:16 10° SSW 18:48:26 15° SSE 18:50:45 12° SE visible
22 Feb ? 20:32:21 10° SW 20:32:41 11° SW 20:32:41 11° SW visible
23 Feb ? 18:30:56 10° SSW 18:34:25 16° SSE 18:37:48 10° SE visible
23 Feb ? 20:18:16 10° SW 20:19:44 16° SW 20:19:44 16° SW visible
24 Feb ? 18:16:40 10° SSW 18:20:24 17° SSE 18:24:07 10° SE visible
24 Feb ? 20:04:13 10° SW 20:06:46 20° SSW 20:06:46 20° SSW visible
